TimeEDT,TemperatureF,Dew PointF,Humidity,Sea Level PressureIn,VisibilityMPH,Wind Direction,Wind SpeedMPH,Gust SpeedMPH,PrecipitationIn,Events,Conditions,WindDirDegrees,DateUTC
12:15 AM,75.2,69.8,83,30.28,10.0,SW,6.9,-,N/A,,Clear,230,2013-07-15 04:15:00
12:35 AM,75.2,69.8,83,30.28,10.0,WSW,8.1,-,N/A,,Clear,240,2013-07-15 04:35:00
12:55 AM,75.2,69.8,83,30.28,10.0,WSW,6.9,-,N/A,,Unknown,240,2013-07-15 04:55:00
1:15 AM,73.4,69.8,88,30.28,10.0,WSW,8.1,-,N/A,,Clear,250,2013-07-15 05:15:00
1:35 AM,73.4,71.6,94,30.27,10.0,West,9.2,-,N/A,,Clear,260,2013-07-15 05:35:00
1:55 AM,73.4,71.6,94,30.27,10.0,WSW,9.2,-,N/A,,Clear,250,2013-07-15 05:55:00
2:15 AM,73.4,71.6,94,30.26,10.0,West,8.1,-,N/A,,Clear,260,2013-07-15 06:15:00
2:35 AM,75.2,71.6,89,30.26,10.0,West,6.9,-,N/A,,Clear,260,2013-07-15 06:35:00
2:55 AM,75.2,71.6,89,30.26,10.0,West,6.9,-,N/A,,Clear,260,2013-07-15 06:55:00
3:15 AM,73.4,71.6,94,30.26,10.0,West,6.9,-,N/A,,Unknown,270,2013-07-15 07:15:00
3:35 AM,73.4,71.6,94,30.26,10.0,West,6.9,-,N/A,,Clear,260,2013-07-15 07:35:00
3:55 AM,73.4,71.6,94,30.26,10.0,West,4.6,-,N/A,,Clear,270,2013-07-15 07:55:00
4:15 AM,73.4,69.8,88,30.26,10.0,West,3.5,-,N/A,,Clear,260,2013-07-15 08:15:00
4:35 AM,73.4,69.8,88,30.27,10.0,West,3.5,-,N/A,,Clear,260,2013-07-15 08:35:00
4:55 AM,71.6,69.8,94,30.27,10.0,SW,4.6,-,N/A,,Clear,220,2013-07-15 08:55:00
5:15 AM,71.6,69.8,94,30.27,9.0,WSW,4.6,-,N/A,,Clear,250,2013-07-15 09:15:00
5:35 AM,71.6,69.8,94,30.27,10.0,WSW,4.6,-,N/A,,Clear,250,2013-07-15 09:35:00
5:55 AM,71.6,69.8,94,30.28,10.0,West,5.8,-,N/A,,Clear,260,2013-07-15 09:55:00
6:15 AM,71.6,69.8,94,30.28,10.0,WSW,5.8,-,N/A,,Clear,250,2013-07-15 10:15:00
6:35 AM,73.4,69.8,88,30.28,10.0,WSW,6.9,-,N/A,,Clear,250,2013-07-15 10:35:00
6:55 AM,75.2,71.6,89,30.28,10.0,West,6.9,-,N/A,,Clear,260,2013-07-15 10:55:00
7:15 AM,77.0,71.6,83,30.28,10.0,West,8.1,-,N/A,,Clear,260,2013-07-15 11:15:00
7:35 AM,78.8,71.6,78,30.28,10.0,West,9.2,-,N/A,,Clear,270,2013-07-15 11:35:00
7:55 AM,80.6,71.6,74,30.28,10.0,West,6.9,-,N/A,,Clear,270,2013-07-15 11:55:00
8:15 AM,80.6,71.6,74,30.28,10.0,West,8.1,-,N/A,,Clear,260,2013-07-15 12:15:00
8:35 AM,82.4,71.6,70,30.28,10.0,WNW,10.4,-,N/A,,Clear,290,2013-07-15 12:35:00
8:55 AM,82.4,71.6,70,30.27,10.0,WNW,9.2,-,N/A,,Clear,290,2013-07-15 12:55:00
9:15 AM,84.2,71.6,66,30.26,10.0,WNW,10.4,-,N/A,,Clear,290,2013-07-15 13:15:00
9:35 AM,86.0,71.6,62,30.26,10.0,WNW,9.2,-,N/A,,Clear,290,2013-07-15 13:35:00
9:55 AM,87.8,71.6,58,30.26,10.0,West,10.4,16.1,N/A,,Clear,280,2013-07-15 13:55:00
10:15 AM,87.8,71.6,58,30.25,10.0,WNW,12.7,-,N/A,,Clear,290,2013-07-15 14:15:00
10:35 AM,89.6,71.6,55,30.25,10.0,WNW,11.5,-,N/A,,Clear,290,2013-07-15 14:35:00
10:55 AM,89.6,71.6,55,30.24,10.0,WNW,11.5,16.1,N/A,,Clear,290,2013-07-15 14:55:00
11:15 AM,89.6,69.8,52,30.24,10.0,West,11.5,-,N/A,,Clear,280,2013-07-15 15:15:00
11:35 AM,91.4,69.8,49,30.24,10.0,NW,9.2,16.1,N/A,,Clear,320,2013-07-15 15:35:00
11:55 AM,91.4,69.8,49,30.23,10.0,NW,10.4,-,N/A,,Unknown,320,2013-07-15 15:55:00
12:15 PM,91.4,69.8,49,30.23,10.0,NW,9.2,-,N/A,,Unknown,320,2013-07-15 16:15:00
12:35 PM,91.4,69.8,49,30.22,10.0,West,9.2,-,N/A,,Unknown,280,2013-07-15 16:35:00
12:55 PM,93.2,69.8,46,30.22,10.0,NNW,10.4,-,N/A,,Unknown,330,2013-07-15 16:55:00
1:15 PM,93.2,69.8,46,30.21,10.0,West,6.9,16.1,N/A,,Unknown,260,2013-07-15 17:15:00
1:35 PM,93.2,69.8,46,30.20,10.0,West,8.1,17.3,N/A,,Unknown,260,2013-07-15 17:35:00
1:55 PM,95.0,69.8,44,30.20,10.0,West,5.8,-,N/A,,Unknown,270,2013-07-15 17:55:00
2:15 PM,96.8,68.0,39,30.20,10.0,WNW,11.5,17.3,N/A,,Unknown,300,2013-07-15 18:15:00
2:35 PM,93.2,68.0,44,30.19,10.0,NW,9.2,-,N/A,,Unknown,320,2013-07-15 18:35:00
2:55 PM,93.2,68.0,44,30.19,10.0,WNW,9.2,-,N/A,,Unknown,290,2013-07-15 18:55:00
3:15 PM,96.8,68.0,39,30.18,10.0,WSW,10.4,-,N/A,,Unknown,240,2013-07-15 19:15:00
3:35 PM,95.0,69.8,44,30.17,10.0,WNW,10.4,-,N/A,,Unknown,300,2013-07-15 19:35:00
3:55 PM,96.8,69.8,41,30.17,10.0,West,10.4,-,N/A,,Unknown,280,2013-07-15 19:55:00
4:15 PM,96.8,69.8,41,30.16,10.0,West,10.4,-,N/A,,Unknown,270,2013-07-15 20:15:00
4:35 PM,96.8,69.8,41,30.16,10.0,West,11.5,-,N/A,,Unknown,280,2013-07-15 20:35:00
4:55 PM,96.8,69.8,41,30.15,10.0,West,12.7,-,N/A,,Unknown,280,2013-07-15 20:55:00
5:15 PM,96.8,69.8,41,30.15,10.0,NNW,10.4,-,N/A,,Unknown,330,2013-07-15 21:15:00
5:35 PM,95.0,69.8,44,30.15,10.0,NW,11.5,-,N/A,,Unknown,320,2013-07-15 21:35:00
5:55 PM,93.2,69.8,46,30.15,10.0,NW,8.1,-,N/A,,Unknown,310,2013-07-15 21:55:00
6:15 PM,91.4,71.6,52,30.14,10.0,NW,8.1,-,N/A,,Unknown,320,2013-07-15 22:15:00
6:35 PM,93.2,71.6,49,30.14,10.0,WNW,5.8,-,N/A,,Unknown,300,2013-07-15 22:35:00
6:55 PM,91.4,71.6,52,30.14,10.0,NW,4.6,-,N/A,,Unknown,320,2013-07-15 22:55:00
7:15 PM,91.4,71.6,52,30.15,10.0,NW,5.8,-,N/A,,Unknown,320,2013-07-15 23:15:00
7:35 PM,89.6,73.4,59,30.15,10.0,NW,4.6,-,N/A,,Unknown,310,2013-07-15 23:35:00
7:55 PM,89.6,73.4,59,30.15,10.0,Calm,Calm,-,N/A,,Unknown,0,2013-07-15 23:55:00
8:15 PM,89.6,73.4,59,30.15,10.0,West,3.5,-,N/A,,Unknown,280,2013-07-16 00:15:00
8:35 PM,86.0,75.2,70,30.14,10.0,West,4.6,-,N/A,,Unknown,270,2013-07-16 00:35:00
8:55 PM,86.0,75.2,70,30.14,10.0,Calm,Calm,-,N/A,,Unknown,0,2013-07-16 00:55:00
9:15 PM,87.8,75.2,66,30.15,10.0,NW,4.6,-,N/A,,Unknown,310,2013-07-16 01:15:00
9:35 PM,84.2,75.2,74,30.15,10.0,WNW,4.6,-,N/A,,Unknown,300,2013-07-16 01:35:00
9:55 PM,86.0,75.2,70,30.16,10.0,Calm,Calm,-,N/A,,Unknown,0,2013-07-16 01:55:00
10:15 PM,82.4,75.2,79,30.16,10.0,Calm,Calm,-,N/A,,Unknown,0,2013-07-16 02:15:00
10:35 PM,82.4,75.2,79,30.16,10.0,NW,3.5,-,N/A,,Unknown,320,2013-07-16 02:35:00
10:55 PM,84.2,73.4,70,30.16,10.0,NW,4.6,-,N/A,,Unknown,310,2013-07-16 02:55:00
11:15 PM,82.4,73.4,74,30.16,10.0,NW,4.6,-,N/A,,Unknown,310,2013-07-16 03:15:00
11:35 PM,82.4,73.4,74,30.17,10.0,NW,4.6,-,N/A,,Unknown,320,2013-07-16 03:35:00
11:55 PM,80.6,73.4,79,30.17,10.0,NW,4.6,-,N/A,,Unknown,320,2013-07-16 03:55:00